Wilmington, DE

1:06 PM EDT on July 28, 2017 (GMT -0400)
New Castle County

Weather History for KILG - February, 2013

Change the Weather History Date:

Monday, February 18, 2013

  Actual Average Record
Temperature  
Mean Temperature 30 °F 36 °F  
Max Temperature 39 °F 44 °F 72 °F (2008)
Min Temperature 20 °F 27 °F -6 °F (1979)
Degree Days  
Heating Degree Days 35 29  
Month to date heating degree days 573 556  
Since 1 July heating degree days 3122 3343  
Cooling Degree Days 0 0  
Month to date cooling degree days 0 0  
Year to date cooling degree days 0 0  
Moisture  
Dew Point 8 °F    
Average Humidity 43    
Maximum Humidity 56    
Minimum Humidity 29    
Precipitation  
Precipitation 0.00 in 0.10 in 1.08 in (1956)
Month to date precipitation 1.28 1.71  
Year to date precipitation 4.98 4.72  
Snow  
Snow 0.00 in 0.30 in 2.50 in (1964)
Month to date snowfall 1.6 5.8  
Since 1 July snowfall 4.2 15.5  
Snow Depth 0.00 in    
Sea Level Pressure  
Sea Level Pressure 30.26 in    
Wind  
Wind Speed 11 mph (West)    
Max Wind Speed 28 mph    
Max Gust Speed 35 mph    
Visibility 10 miles    
Events      
T = Trace of Precipitation, MM = Missing Value Source: NWS Daily Summary

Daily Weather History Graph

Daily Weather History Graph

Search for Another Location

Airport or City:

Trip Planner

Search our weather history database for the weather conditions in past years. The results will help you decide how hot, cold, wet, or windy it might be!

Date:

Astronomy

Feb. 18, 2013 Rise Set
Actual Time 6:50 AM EST 5:42 PM EST
Civil Twilight 6:23 AM EST 6:10 PM EST
Nautical Twilight 5:51 AM EST 6:41 PM EST
Astronomical Twilight 5:20 AM EST 7:12 PM EST
Moon 11:27 AM EST (2/18) 1:27 AM EST (2/18)
Length of Visible Light 11h 46m
Length of Day
10h 51m
First Quarter, 58% of the Moon is Illuminated
Feb 18
First Quarter
Feb 25
Full
Mar 4
Last Quarter
Mar 11
New
Mar 19
First Quarter

Hourly Weather History & Observations

Time (EST) Temp. Windchill Dew Point Humidity Pressure Visibility Wind Dir Wind Speed Gust Speed Precip Events Conditions
12:51 AM 23.0 °F 8.0 °F 3.0 °F 42% 30.15 in 10.0 mi WNW 20.7 mph 32.2 mph N/A   Clear
1:51 AM 21.9 °F 7.3 °F 3.9 °F 46% 30.18 in 10.0 mi WNW 18.4 mph 29.9 mph N/A   Clear
2:51 AM 21.2 °F 6.8 °F 3.2 °F 46% 30.18 in 10.0 mi WNW 17.3 mph 24.2 mph N/A   Clear
3:51 AM 21.0 °F 7.1 °F 5.0 °F 50% 30.21 in 10.0 mi WNW 16.1 mph 20.7 mph N/A   Clear
4:51 AM 21.0 °F 7.6 °F 5.0 °F 50% 30.23 in 10.0 mi NW 15.0 mph 20.7 mph N/A   Clear
5:51 AM 21.0 °F 8.6 °F 5.0 °F 50% 30.27 in 10.0 mi WNW 12.7 mph - N/A   Clear
6:51 AM 19.9 °F 7.3 °F 6.1 °F 55% 30.30 in 10.0 mi WNW 12.7 mph - N/A   Clear
7:51 AM 23.0 °F 11.1 °F 7.0 °F 50% 30.32 in 10.0 mi WNW 12.7 mph 20.7 mph N/A   Clear
8:51 AM 26.1 °F 14.5 °F 7.0 °F 44% 30.35 in 10.0 mi WNW 13.8 mph 23.0 mph N/A   Clear
9:51 AM 28.0 °F 16.5 °F 7.0 °F 41% 30.35 in 10.0 mi NNW 15.0 mph - N/A   Clear
10:51 AM 30.0 °F 19.1 °F 8.1 °F 40% 30.36 in 10.0 mi WNW 15.0 mph 20.7 mph N/A   Clear
11:51 AM 33.1 °F 23.4 °F 9.0 °F 37% 30.33 in 10.0 mi NW 13.8 mph 18.4 mph N/A   Clear
12:51 PM 35.1 °F 26.9 °F 9.0 °F 34% 30.30 in 10.0 mi NW 11.5 mph - N/A   Clear
1:51 PM 36.0 °F 29.0 °F 9.0 °F 33% 30.28 in 10.0 mi West 9.2 mph - N/A   Clear
2:51 PM 37.0 °F 30.4 °F 8.1 °F 30% 30.27 in 10.0 mi West 9.2 mph 19.6 mph N/A   Clear
3:51 PM 37.9 °F 32.7 °F 8.1 °F 29% 30.26 in 10.0 mi West 6.9 mph - N/A   Clear
4:51 PM 37.0 °F 31.0 °F 10.0 °F 33% 30.25 in 10.0 mi SW 8.1 mph - N/A   Clear
5:51 PM 34.0 °F 28.8 °F 9.0 °F 35% 30.26 in 10.0 mi SW 5.8 mph - N/A   Clear
6:51 PM 33.1 °F 27.7 °F 10.9 °F 40% 30.28 in 10.0 mi SSW 5.8 mph - N/A   Clear
7:51 PM 32.0 °F 27.5 °F 12.0 °F 44% 30.27 in 10.0 mi South 4.6 mph - N/A   Clear
8:51 PM 30.9 °F 26.2 °F 12.0 °F 46% 30.26 in 10.0 mi South 4.6 mph - N/A   Clear
9:51 PM 30.9 °F 26.2 °F 15.1 °F 52% 30.24 in 10.0 mi South 4.6 mph - N/A   Clear
10:51 PM 30.0 °F 25.2 °F 14.0 °F 51% 30.23 in 10.0 mi South 4.6 mph - N/A   Clear
11:51 PM 30.9 °F 27.5 °F 15.1 °F 52% 30.21 in 10.0 mi SSE 3.5 mph - N/A   Clear